Port Angeles, WA

5:29 PM PDT on June 26, 2017 (GMT -0700)
Fairchild International

Weather History for KCLM - December, 2012

Change the Weather History Date:

Friday, December 7, 2012

  Actual Average Record
Temperature  
Mean Temperature 43 °F -  
Max Temperature 45 °F 45 °F 54 °F (2010)
Min Temperature 41 °F 35 °F 18 °F (2013)
Degree Days  
Heating Degree Days 22    
Moisture  
Dew Point 34 °F    
Average Humidity 73    
Maximum Humidity 89    
Minimum Humidity 56    
Precipitation  
Precipitation 0.08 in - - ()
Sea Level Pressure  
Sea Level Pressure 30.02 in    
Wind  
Wind Speed 11 mph (West)    
Max Wind Speed 18 mph    
Max Gust Speed 29 mph    
Visibility 10 miles    
Events Rain    
Averages and records for this station are not official NWS values.
T = Trace of Precipitation, MM = Missing Value Source: NWS Daily Summary

Daily Weather History Graph

Daily Weather History Graph

Search for Another Location

Airport or City:

Trip Planner

Search our weather history database for the weather conditions in past years. The results will help you decide how hot, cold, wet, or windy it might be!

Date:

Astronomy

Dec. 07, 2012 Rise Set
Actual Time 7:50 AM PST 4:20 PM PST
Civil Twilight 7:14 AM PST 4:56 PM PST
Nautical Twilight 6:35 AM PST 5:36 PM PST
Astronomical Twilight 5:57 AM PST 6:13 PM PST
Moon 12:50 AM PST (12/7) 12:43 PM PST (12/7)
Length of Visible Light 9h 41m
Length of Day
8h 29m
Last Quarter, 37% of the Moon is Illuminated
Dec 7
Last Quarter
Dec 13
New
Dec 19
First Quarter
Dec 28
Full
Jan 4
Last Quarter

Hourly Weather History & Observations

Time (PST) Temp. Windchill Dew Point Humidity Pressure Visibility Wind Dir Wind Speed Gust Speed Precip Events Conditions
12:53 AM 43.0 °F 38.2 °F 36.0 °F 76% 30.01 in 10.0 mi West 8.1 mph - 0.00 in   Overcast
1:53 AM 44.1 °F 39.5 °F 37.0 °F 76% 30.01 in 10.0 mi SW 8.1 mph - 0.00 in Rain Light Rain
2:53 AM 45.0 °F 39.3 °F 36.0 °F 71% 30.00 in 10.0 mi WSW 11.5 mph 19.6 mph 0.00 in   Mostly Cloudy
3:53 AM 45.0 °F 38.9 °F 37.0 °F 74% 29.98 in 10.0 mi WSW 12.7 mph - 0.00 in Rain Light Rain
4:53 AM 42.1 °F 35.7 °F 37.9 °F 85% 29.98 in 10.0 mi West 11.5 mph - 0.01 in Rain Light Rain
5:53 AM 42.1 °F 37.7 °F 37.9 °F 85% 29.97 in 10.0 mi WSW 6.9 mph - 0.02 in Rain Light Rain
6:11 AM 42.1 °F 40.2 °F 39.0 °F 89% 29.95 in 10.0 mi West 3.5 mph - 0.00 in Rain Light Rain
6:53 AM 42.1 °F 36.6 °F 37.9 °F 85% 29.96 in 10.0 mi WSW 9.2 mph - 0.00 in   Overcast
7:53 AM 41.0 °F 37.1 °F 37.9 °F 89% 29.96 in 10.0 mi SW 5.8 mph - 0.01 in Rain Light Rain
8:53 AM 43.0 °F 34.8 °F 37.0 °F 80% 29.95 in 4.0 mi West 18.4 mph 26.5 mph 0.02 in Rain Rain
9:26 AM 43.0 °F 37.7 °F 37.9 °F 82% 29.95 in 10.0 mi WSW 9.2 mph - 0.01 in   Overcast
9:53 AM 43.0 °F 35.1 °F 37.9 °F 82% 29.97 in 7.0 mi WNW 17.3 mph 25.3 mph 0.01 in Rain Rain
10:06 AM 43.0 °F 36.0 °F 37.9 °F 82% 29.96 in 10.0 mi West 13.8 mph - 0.01 in Rain Light Rain
10:53 AM 43.0 °F 35.7 °F 37.9 °F 82% 29.99 in 10.0 mi West 15.0 mph - 0.01 in Rain Light Rain
11:53 AM 42.1 °F 34.5 °F 36.0 °F 79% 30.00 in 10.0 mi West 15.0 mph - 0.00 in Rain Light Rain
12:53 PM 41.0 °F 32.8 °F 35.1 °F 79% 30.03 in 10.0 mi West 16.1 mph 27.6 mph 0.00 in Rain Light Rain
1:53 PM 43.0 °F 35.1 °F 34.0 °F 71% 30.03 in 10.0 mi West 17.3 mph 25.3 mph 0.00 in   Clear
2:53 PM 43.0 °F 35.4 °F 30.9 °F 62% 30.04 in 10.0 mi West 16.1 mph 23.0 mph N/A   Clear
3:53 PM 43.0 °F 35.4 °F 30.0 °F 60% 30.06 in 10.0 mi West 16.1 mph - N/A   Clear
4:53 PM 43.0 °F 35.1 °F 28.0 °F 56% 30.06 in 10.0 mi West 17.3 mph 27.6 mph N/A   Clear
5:53 PM 43.0 °F 35.4 °F 28.9 °F 58% 30.09 in 10.0 mi West 16.1 mph 25.3 mph N/A   Partly Cloudy
6:53 PM 43.0 °F 34.8 °F 28.9 °F 58% 30.09 in 10.0 mi West 18.4 mph 28.8 mph N/A   Mostly Cloudy
7:53 PM 43.0 °F 35.1 °F 30.0 °F 60% 30.11 in 10.0 mi West 17.3 mph - N/A   Mostly Cloudy
8:53 PM 43.0 °F 36.4 °F 30.0 °F 60% 30.11 in 10.0 mi West 12.7 mph - N/A   Scattered Clouds
9:53 PM 43.0 °F 36.4 °F 28.9 °F 58% 30.12 in 10.0 mi West 12.7 mph - N/A   Clear
10:53 PM 43.0 °F 36.8 °F 30.0 °F 60% 30.14 in 10.0 mi West 11.5 mph 24.2 mph N/A   Clear
11:53 PM 42.1 °F 36.1 °F 30.9 °F 65% 30.14 in 10.0 mi WSW 10.4 mph - N/A   Mostly Cloudy